Time,TemperatureF,DewpointF,PressureIn,WindDirection,WindDirectionDegrees,WindSpeedMPH,WindSpeedGustMPH,Humidity,HourlyPrecipIn,Conditions,Clouds,dailyrainin,SoftwareType,DateUTC
2013-09-12 00:24:00,67.0,-99.9,-100.00,SW,230,5.0,5.0,-999,-99.99,,,-99.99,,2013-09-12 04:24:00,
2013-09-12 00:44:00,67.0,-99.9,-100.00,SW,220,3.0,5.0,-999,-99.99,,,-99.99,,2013-09-12 04:44:00,
2013-09-12 00:54:00,67.0,-99.9,-100.00,SW,230,5.0,5.0,-999,-99.99,,,-99.99,,2013-09-12 04:54:00,
2013-09-12 01:03:00,67.0,-99.9,-100.00,SW,230,5.0,5.0,-999,-99.99,,,-99.99,,2013-09-12 05:03:00,
2013-09-12 01:23:00,67.0,-99.9,-100.00,SSW,210,6.0,7.0,-999,-99.99,,,-99.99,,2013-09-12 05:23:00,
2013-09-12 01:53:00,67.0,-99.9,-100.00,WNW,290,2.0,3.0,-999,-99.99,,,-99.99,,2013-09-12 05:53:00,
2013-09-12 02:12:00,67.0,-99.9,-100.00,WNW,290,6.0,8.0,-999,-99.99,,,-99.99,,2013-09-12 06:12:00,
2013-09-12 02:30:00,66.0,-99.9,-100.00,NW,310,6.0,8.0,-999,-99.99,,,-99.99,,2013-09-12 06:30:00,
2013-09-12 02:52:00,66.0,-99.9,-100.00,West,280,6.0,9.0,-999,-99.99,,,-99.99,,2013-09-12 06:52:00,
2013-09-12 03:00:00,66.0,-99.9,-100.00,West,280,5.0,7.0,-999,-99.99,,,-99.99,,2013-09-12 07:00:00,
2013-09-12 03:12:00,66.0,-99.9,-100.00,NW,310,6.0,8.0,-999,-99.99,,,-99.99,,2013-09-12 07:12:00,
2013-09-12 03:22:00,66.0,-99.9,-100.00,NW,310,6.0,8.0,-999,-99.99,,,-99.99,,2013-09-12 07:22:00,
2013-09-12 03:53:00,66.0,-99.9,-100.00,West,280,5.0,7.0,-999,-99.99,,,-99.99,,2013-09-12 07:53:00,
2013-09-12 04:22:00,66.0,-99.9,-100.00,West,280,8.0,10.0,-999,-99.99,,,-99.99,,2013-09-12 08:22:00,
2013-09-12 04:32:00,66.0,-99.9,-100.00,West,280,8.0,10.0,-999,-99.99,,,-99.99,,2013-09-12 08:32:00,
2013-09-12 04:52:00,66.0,-99.9,-100.00,WNW,300,10.0,15.0,-999,-99.99,,,-99.99,,2013-09-12 08:52:00,
2013-09-12 05:02:00,66.0,-99.9,-100.00,WNW,300,10.0,15.0,-999,-99.99,,,-99.99,,2013-09-12 09:02:00,
2013-09-12 05:22:00,65.0,-99.9,-100.00,NW,320,14.0,22.0,-999,-99.99,,,-99.99,,2013-09-12 09:22:00,
2013-09-12 05:34:00,65.0,-99.9,-100.00,NW,320,14.0,22.0,-999,-99.99,,,-99.99,,2013-09-12 09:34:00,
2013-09-12 05:53:00,64.0,-99.9,-100.00,NW,310,14.0,16.0,-999,-99.99,,,-99.99,,2013-09-12 09:53:00,
2013-09-12 06:03:00,64.0,-99.9,-100.00,NW,310,14.0,16.0,-999,-99.99,,,-99.99,,2013-09-12 10:03:00,
2013-09-12 06:23:00,64.0,-99.9,-100.00,NW,310,11.0,14.0,-999,-99.99,,,-99.99,,2013-09-12 10:23:00,
2013-09-12 06:53:00,63.0,-99.9,-100.00,NW,320,10.0,16.0,-999,-99.99,,,-99.99,,2013-09-12 10:53:00,
2013-09-12 07:03:00,63.0,-99.9,-100.00,NW,320,10.0,16.0,-999,-99.99,,,-99.99,,2013-09-12 11:03:00,
2013-09-12 07:22:00,62.0,-99.9,-100.00,NW,320,11.0,18.0,-999,-99.99,,,-99.99,,2013-09-12 11:22:00,
2013-09-12 07:33:00,62.0,-99.9,-100.00,NW,320,11.0,18.0,-999,-99.99,,,-99.99,,2013-09-12 11:33:00,
2013-09-12 07:52:00,63.0,-99.9,-100.00,NW,320,13.0,18.0,-999,-99.99,,,-99.99,,2013-09-12 11:52:00,
2013-09-12 08:02:00,63.0,-99.9,-100.00,NW,320,13.0,18.0,-999,-99.99,,,-99.99,,2013-09-12 12:02:00,
2013-09-12 08:22:00,63.0,-99.9,-100.00,NW,320,13.0,17.0,-999,-99.99,,,-99.99,,2013-09-12 12:22:00,
2013-09-12 08:42:00,63.0,-99.9,-100.00,NW,320,11.0,16.0,-999,-99.99,,,-99.99,,2013-09-12 12:42:00,
2013-09-12 08:52:00,63.0,-99.9,-100.00,NW,320,11.0,17.0,-999,-99.99,,,-99.99,,2013-09-12 12:52:00,
2013-09-12 09:11:00,62.0,-99.9,-100.00,NW,320,9.0,14.0,-999,-99.99,,,-99.99,,2013-09-12 13:11:00,
2013-09-12 09:22:00,62.0,-99.9,-100.00,NW,320,13.0,20.0,-999,-99.99,,,-99.99,,2013-09-12 13:22:00,
2013-09-12 09:32:00,62.0,-99.9,-100.00,NW,320,13.0,20.0,-999,-99.99,,,-99.99,,2013-09-12 13:32:00,
2013-09-12 09:52:00,63.0,-99.9,-100.00,NW,310,14.0,23.0,-999,-99.99,,,-99.99,,2013-09-12 13:52:00,
2013-09-12 10:11:00,63.0,-99.9,-100.00,NNW,330,13.0,22.0,-999,-99.99,,,-99.99,,2013-09-12 14:11:00,
2013-09-12 10:22:00,63.0,-99.9,-100.00,NNW,330,16.0,23.0,-999,-99.99,,,-99.99,,2013-09-12 14:22:00,
2013-09-12 10:43:00,63.0,-99.9,-100.00,NW,320,17.0,22.0,-999,-99.99,,,-99.99,,2013-09-12 14:43:00,
2013-09-12 11:11:00,64.0,-99.9,-100.00,NNW,330,18.0,29.0,-999,-99.99,,,-99.99,,2013-09-12 15:11:00,
2013-09-12 11:44:00,65.0,-99.9,-100.00,NNW,330,14.0,24.0,-999,-99.99,,,-99.99,,2013-09-12 15:44:00,
2013-09-12 12:13:00,65.0,-99.9,-100.00,NW,320,16.0,22.0,-999,-99.99,,,-99.99,,2013-09-12 16:13:00,
2013-09-12 12:23:00,66.0,-99.9,-100.00,NW,310,15.0,21.0,-999,-99.99,,,-99.99,,2013-09-12 16:23:00,
2013-09-12 12:43:00,66.0,-99.9,-100.00,NNW,340,15.0,23.0,-999,-99.99,,,-99.99,,2013-09-12 16:43:00,
2013-09-12 12:53:00,66.0,-99.9,-100.00,NNW,340,17.0,22.0,-999,-99.99,,,-99.99,,2013-09-12 16:53:00,
2013-09-12 13:23:00,66.0,-99.9,-100.00,NNW,330,15.0,22.0,-999,-99.99,,,-99.99,,2013-09-12 17:23:00,
2013-09-12 13:34:00,66.0,-99.9,-100.00,NNW,330,15.0,22.0,-999,-99.99,,,-99.99,,2013-09-12 17:34:00,
2013-09-12 13:54:00,66.0,-99.9,-100.00,NW,320,16.0,21.0,-999,-99.99,,,-99.99,,2013-09-12 17:54:00,
2013-09-12 14:02:00,66.0,-99.9,-100.00,NW,320,16.0,21.0,-999,-99.99,,,-99.99,,2013-09-12 18:02:00,
2013-09-12 14:22:00,66.0,-99.9,-100.00,NNW,330,17.0,24.0,-999,-99.99,,,-99.99,,2013-09-12 18:22:00,
2013-09-12 14:32:00,66.0,-99.9,-100.00,NNW,330,17.0,24.0,-999,-99.99,,,-99.99,,2013-09-12 18:32:00,
2013-09-12 14:52:00,65.0,-99.9,-100.00,NW,320,17.0,24.0,-999,-99.99,,,-99.99,,2013-09-12 18:52:00,
2013-09-12 15:02:00,65.0,-99.9,-100.00,NW,320,17.0,24.0,-999,-99.99,,,-99.99,,2013-09-12 19:02:00,
2013-09-12 15:12:00,65.0,-99.9,-100.00,NW,320,17.0,24.0,-999,-99.99,,,-99.99,,2013-09-12 19:12:00,
2013-09-12 15:22:00,64.0,-99.9,-100.00,NW,320,15.0,23.0,-999,-99.99,,,-99.99,,2013-09-12 19:22:00,
2013-09-12 15:42:00,64.0,-99.9,-100.00,NW,320,16.0,22.0,-999,-99.99,,,-99.99,,2013-09-12 19:42:00,
2013-09-12 16:12:00,64.0,-99.9,-100.00,NW,320,18.0,25.0,-999,-99.99,,,-99.99,,2013-09-12 20:12:00,
2013-09-12 16:42:00,63.0,-99.9,-100.00,NNW,330,17.0,24.0,-999,-99.99,,,-99.99,,2013-09-12 20:42:00,
2013-09-12 17:11:00,61.0,-99.9,-100.00,NW,320,17.0,22.0,-999,-99.99,,,-99.99,,2013-09-12 21:11:00,
2013-09-12 17:43:00,61.0,-99.9,-100.00,NNW,330,16.0,22.0,-999,-99.99,,,-99.99,,2013-09-12 21:43:00,
2013-09-12 18:13:00,60.0,-99.9,-100.00,NNW,340,14.0,21.0,-999,-99.99,,,-99.99,,2013-09-12 22:13:00,
2013-09-12 18:43:00,60.0,-99.9,-100.00,NNW,340,16.0,23.0,-999,-99.99,,,-99.99,,2013-09-12 22:43:00,
2013-09-12 19:12:00,59.0,-99.9,-100.00,NNW,340,16.0,25.0,-999,-99.99,,,-99.99,,2013-09-12 23:12:00,
2013-09-12 19:43:00,58.0,-99.9,-100.00,NNW,340,15.0,23.0,-999,-99.99,,,-99.99,,2013-09-12 23:43:00,
2013-09-12 20:12:00,58.0,-99.9,-100.00,NNW,330,14.0,24.0,-999,-99.99,,,-99.99,,2013-09-13 00:12:00,
2013-09-12 20:22:00,58.0,-99.9,-100.00,NNW,330,13.0,20.0,-999,-99.99,,,-99.99,,2013-09-13 00:22:00,
2013-09-12 20:32:00,58.0,-99.9,-100.00,NNW,330,13.0,20.0,-999,-99.99,,,-99.99,,2013-09-13 00:32:00,
2013-09-12 20:52:00,57.0,-99.9,-100.00,NNW,330,13.0,22.0,-999,-99.99,,,-99.99,,2013-09-13 00:52:00,
2013-09-12 21:02:00,57.0,-99.9,-100.00,NNW,330,13.0,22.0,-999,-99.99,,,-99.99,,2013-09-13 01:02:00,
2013-09-12 21:22:00,57.0,-99.9,-100.00,NNW,330,16.0,28.0,-999,-99.99,,,-99.99,,2013-09-13 01:22:00,
2013-09-12 21:32:00,57.0,-99.9,-100.00,NNW,330,16.0,28.0,-999,-99.99,,,-99.99,,2013-09-13 01:32:00,
2013-09-12 21:53:00,56.0,-99.9,-100.00,NNW,330,15.0,21.0,-999,-99.99,,,-99.99,,2013-09-13 01:53:00,
2013-09-12 22:02:00,56.0,-99.9,-100.00,NNW,330,15.0,21.0,-999,-99.99,,,-99.99,,2013-09-13 02:02:00,
2013-09-12 22:22:00,56.0,-99.9,-100.00,NNW,330,11.0,18.0,-999,-99.99,,,-99.99,,2013-09-13 02:22:00,
2013-09-12 22:32:00,56.0,-99.9,-100.00,NNW,330,11.0,18.0,-999,-99.99,,,-99.99,,2013-09-13 02:32:00,
2013-09-12 22:53:00,56.0,-99.9,-100.00,NNW,330,10.0,15.0,-999,-99.99,,,-99.99,,2013-09-13 02:53:00,
2013-09-12 23:02:00,56.0,-99.9,-100.00,NNW,330,10.0,15.0,-999,-99.99,,,-99.99,,2013-09-13 03:02:00,
2013-09-12 23:22:00,53.0,-99.9,-100.00,North,360,11.0,23.0,-999,-99.99,,,-99.99,,2013-09-13 03:22:00,
2013-09-12 23:34:00,53.0,-99.9,-100.00,North,360,11.0,23.0,-999,-99.99,,,-99.99,,2013-09-13 03:34:00,
2013-09-12 23:55:00,52.0,-99.9,-100.00,NNW,340,10.0,14.0,-999,-99.99,,,-99.99,,2013-09-13 03:55:00,